Tracking 30696 objects as of 15-Jun-2025
HD Live streaming from Space Station
objects crossing your sky now

COSMOS 970 DEB

Track COSMOS 970 DEB now!
10-day predictions


NORAD ID: 10570
Int'l Code: 1977-121M
Perigee: 945.4 km
Apogee: 966.4 km
Inclination: 65.4 °
Period: 104.0 minutes
Semi major axis: 7326 km
RCS: 0.049 m2 (small)
Launch date: December 21, 1977
Source: Commonwealth of Independent States (former USSR) (CIS)
Launch site: TYURATAM MISSILE AND SPACE COMPLEX (TTMTR)

Note: This is SATELLITE DEBRIS
Your satellite tracking list
Your tracking list is empty




NASA's NSSDC Master Catalog

Two Line Element Set (TLE):
1 10570U 77121M   25165.43112995  .00001481  00000-0  14000-2 0  9995
2 10570  65.3603 296.7360 0014383 244.9236 180.4762 13.84276766356833
Source of the keplerian elements: AFSPC